MPEC 2004-Y68 : 2004 MN4
The following Minor Planet Electronic Circular may be linked-to from your own Web pages, but must not otherwise be redistributed electronically.A form allowing access to any MPEC is at the bottom of this page.


M.P.E.C. 2004-Y68 Issued 2004 Dec. 27, 14:13 UT The Minor Planet Electronic Circulars contain information on unusual minor planets and routine data on comets. They are published on behalf of Commission 20 of the International Astronomical Union by the Minor Planet Center, Smithsonian Astrophysical Observatory, Cambridge, MA 02138, U.S.A. Supported in part by the Brinson Foundation Prepared using the Tamkin Foundation Computer Network MPC@CFA.HARVARD.EDU URL http://cfa-www.harvard.edu/iau/mpc.html ISSN 1523-6714 2004 MN4 Revision to MPEC 2004-Y66 Additional Observations: K04M04N C2004 12 26.67579 00 54 52.45 -28 45 49.9 19.5 EY068097 K04M04N C2004 12 26.67878 00 54 54.27 -28 45 38.2 18.0 EY068097 K04M04N C2004 12 26.68205 00 54 56.42 -28 45 23.0 20.5 EY068097 K04M04N C2004 12 26.68317 00 54 57.02 -28 45 19.1 17.9 EY068097 K04M04N C2004 12 26.68429 00 54 57.75 -28 45 14.2 18.2 EY068097 K04M04N C2004 12 26.68524 00 54 58.26 -28 45 10.1 18.2 EY068097 K04M04N C2004 12 26.68602 00 54 58.67 -28 45 06.4 16.7 EY068097 K04M04N C2004 12 26.68679 00 54 59.21 -28 45 03.2 18.1 EY068097 K04M04N C2004 12 26.68755 00 54 59.64 -28 45 00.1 18.0 EY068097 K04M04N C2004 12 26.68833 00 55 00.14 -28 44 57.1 17.8 EY068097 K04M04N C2004 12 26.68912 00 55 00.61 -28 44 53.9 18.2 EY068097 K04M04N C2004 12 26.68990 00 55 01.08 -28 44 49.7 18.1 EY068097 K04M04N C2004 12 26.69067 00 55 01.54 -28 44 46.9 18.2 EY068097 K04M04N C2004 12 26.69802 00 55 06.00 -28 44 15.4 18.0 EY068097 K04M04N C2004 12 26.69990 00 55 07.12 -28 44 07.2 18.0 EY068097 K04M04N C2004 12 26.70067 00 55 07.59 -28 44 03.8 18.0 EY068097 K04M04N C2004 12 26.70145 00 55 08.06 -28 44 00.4 17.5 EY068097 K04M04N C2004 12 26.70221 00 55 08.57 -28 43 57.4 18.2 EY068097 K04M04N C2004 12 26.70392 00 55 09.62 -28 43 50.3 18.7 EY068097 K04M04N C2004 12 26.70464 00 55 10.04 -28 43 46.6 17.9 EY068097 K04M04N C2004 12 26.70542 00 55 10.51 -28 43 43.7 18.1 EY068097 K04M04N C2004 12 26.70616 00 55 10.93 -28 43 40.1 18.5 EY068097 K04M04N C2004 12 26.70834 00 55 12.27 -28 43 31.0 18.1 EY068097 K04M04N C2004 12 26.71025 00 55 13.44 -28 43 22.6 18.1 EY068097 K04M04N C2004 12 26.71098 00 55 13.87 -28 43 19.7 18.4 EY068097 K04M04N C2004 12 26.71245 00 55 14.78 -28 43 13.0 18.0 EY068097 K04M04N C2004 12 26.71318 00 55 15.20 -28 43 09.7 17.9 EY068097 K04M04N C2004 12 26.71392 00 55 15.65 -28 43 06.8 18.6 EY068097 K04M04N C2004 12 26.71465 00 55 16.07 -28 43 03.8 18.4 EY068097 K04M04N C2004 12 26.71538 00 55 16.51 -28 43 00.5 18.3 EY068097 K04M04N C2004 12 26.71612 00 55 16.95 -28 42 57.5 18.1 EY068097 K04M04N C2004 12 26.71686 00 55 17.47 -28 42 54.0 18.7 EY068097 K04M04N C2004 12 26.72205 00 55 20.63 -28 42 31.6 17.8 EY068097 K04M04N C2004 12 26.72279 00 55 21.08 -28 42 28.7 18.4 EY068097 K04M04N C2004 12 26.72644 00 55 23.26 -28 42 12.6 17.8 EY068097 K04M04N C2004 12 26.72909 00 55 24.85 -28 42 01.4 18.6 EY068097 K04M04N C2004 12 26.72983 00 55 25.30 -28 41 58.1 18.1 EY068097 K04M04N C2004 12 26.73059 00 55 25.76 -28 41 54.8 18.3 EY068097 K04M04N C2004 12 26.73131 00 55 26.20 -28 41 51.8 18.1 EY068097 K04M04N C2004 12 26.73204 00 55 26.68 -28 41 48.3 19.3 EY068097 K04M04N C2004 12 26.73350 00 55 27.55 -28 41 41.8 19.3 EY068097 K04M04N C2004 12 26.73500 00 55 28.45 -28 41 35.6 18.2 EY068097 K04M04N C2004 12 26.73573 00 55 28.94 -28 41 32.3 19.3 EY068097 K04M04N C2004 12 26.74019 00 55 31.59 -28 41 13.4 18.4 EY068097 K04M04N C2004 12 26.74091 00 55 32.04 -28 41 10.5 18.3 EY068097 K04M04N C2004 12 26.74241 00 55 32.96 -28 41 03.4 18.7 EY068097 K04M04N C2004 12 26.74316 00 55 33.44 -28 41 00.0 18.2 EY068097 K04M04N C2004 12 26.74917 00 55 37.14 -28 40 33.1 18.1 EY068097 K04M04N C2004 12 26.74990 00 55 37.57 -28 40 30.0 19.0 EY068097 K04M04N C2004 12 26.75067 00 55 37.98 -28 40 27.5 19.4 EY068097 K04M04N C2004 12 26.75289 00 55 39.33 -28 40 17.4 19.0 EY068097 Observer details: 097 Wise Observatory, Mitzpeh Ramon. Observers D. Polishook, Y. Lipkin. Measurer D. Polishook. 1.0-m f/7 reflector + CCD. Orbital elements: 2004 MN4 PHA 0.002A Epoch 2005 Jan. 30.0 TT = JDT 2453400.5 MPC M 137.20041 (2000.0) P Q n 1.11266043 Peri. 126.38994 +0.87287271 +0.48735381 a 0.9223469 Node 204.47051 -0.46423016 +0.81423948 e 0.1911692 Incl. 3.33162 -0.15027836 +0.31543673 P 0.89 H 19.7 G 0.15 U 5 Residuals in seconds of arc 040619 695 0.1+ 0.1- 041225 H06 1.1- 0.4+ 041226 651 0.2+ 0.3+ 040619 695 0.3+ 0.4- 041225 H06 0.9- 0.5+ 041226 651 0.2+ 0.6+ 040619 695 0.1+ 0.2- 041225 683 0.1+ 0.2+ 041226 651 0.1+ 0.0 040620 695 0.2- 0.0 041225 683 0.0 0.2+ 041226 651 0.2+ 0.3+ 040620 695 0.0 0.0 041225 H06 0.5- 0.2+ 041226 683 0.9- 0.2- 040620 695 0.4- 0.3- 041225 683 0.5- 0.8- 041226 651 0.1+ 0.3+ 041218 E12 0.0 0.6+ 041225 683 0.6- 0.3+ 041226 448 0.2- 0.0 041218 E12 1.2+ 0.4- 041225 683 0.1+ 0.0 041226 683 1.0+ 1.0+ 041218 E12 0.0 0.3- 041225 683 0.3+ 0.5- 041226 683 0.5- 0.3+ 041218 E12 0.3- 0.2+ 041225 683 0.4- 0.1+ 041226 448 0.4- 0.1- 041218 E12 0.2+ 0.3- 041225 683 0.1- 0.0 041226 683 0.5- 0.2+ 041218 E12 0.1+ 0.4- 041225 683 0.7- 0.3- 041226 651 0.1+ 0.2+ 041218 E12 0.1+ 0.2- 041225 683 0.3- 0.4- 041226 683 1.4- 1.4- 041218 E12 0.3+ 0.2+ 041225 683 0.1- 0.1+ 041226 651 0.4+ 0.3+ 041218 E12 0.7+ 0.0 041225 683 0.8- 0.6+ 041226 651 0.1+ 0.1+ 041218 E12 0.3+ 0.4+ 041225 683 0.9- 0.1- 041226 683 0.3+ 0.4- 041218 E12 0.7+ 0.3- 041225 683 0.2- 0.4- 041226 448 0.0 0.1+ 041218 E12 0.0 0.2- 041225 683 0.3+ 0.0 041226 683 0.5- 0.5- 041219 854 0.4- 1.1- 041225 683 0.1+ 0.1- 041226 683 0.3- 0.9+ 041219 854 1.3- 1.3+ 041225 683 0.1- 0.5+ 041226 683 0.5- 0.1- 041219 854 0.8+ 0.4+ 041225 683 0.7- 0.9- 041226 097 0.4- 0.5+ 041219 854 0.7- 0.7- 041225 683 0.5+ 0.3- 041226 097 0.3- 0.5- 041219 854 0.0 0.5- 041225 448 0.2+ 0.0 041226 097 1.8+ 0.7+ 041219 474 0.3+ 0.2- 041225 448 0.2+ 0.1- 041226 097 0.8+ 0.2- 041219 474 0.2+ 0.2- 041225 448 0.0 0.1- 041226 097 1.4+ 0.1- 041219 474 0.0 0.4- 041226 H36 0.6- 0.7+ 041226 097 0.6+ 0.0 041219 474 0.1+ 0.2- 041226 H36 0.1+ 1.0+ 041226 097 0.3- 0.3+ 041220 673 0.6- 0.7- 041226 H36 0.5- 0.4- 041226 097 0.7+ 0.2+ 041220 673 0.4- 0.1- 041226 H36 0.2- 0.0 041226 097 0.3+ 0.1+ 041220 673 0.5- 0.4- 041226 H36 0.9+ 0.0 041226 097 0.6+ 0.3- 041220 673 0.2- 0.1- 041226 H36 0.7+ 0.5+ 041226 097 0.5+ 0.5- 041222 E12 0.6+ 0.1+ 041226 H06 0.6- 0.2- 041226 097 0.4+ 0.4+ 041222 E12 0.6+ 0.0 041226 715 0.1- 0.5+ 041226 097 0.3+ 0.1- 041222 E12 0.4- 0.3- 041226 H06 0.4- 0.0 041226 097 0.3+ 0.1- 041222 E12 0.9+ 0.1+ 041226 H06 0.6- 1.0+ 041226 097 0.0 0.0 041223 704 (2.5- 2.3+) 041226 H36 0.2- 0.1- 041226 097 0.0 0.1+ 041223 704 0.2- 1.0+ 041226 715 0.3- 0.5+ 041226 097 0.0 0.1+ 041223 704 (2.2- 0.4+) 041226 H06 0.3+ 1.0+ 041226 097 0.6+ 0.2- 041223 704 0.4- 0.6- 041226 H06 0.1- 0.5+ 041226 097 0.8+ 0.4- 041223 704 0.9- 1.5+ 041226 H06 0.3- 0.2+ 041226 097 0.6+ 0.2+ 041223 704 0.2- 0.2- 041226 715 0.4- 0.5+ 041226 097 0.5+ 0.3- 041223 704 1.4- 0.7+ 041226 715 0.3- 0.3+ 041226 097 0.1+ 0.1+ 041223 704 0.8- 0.2- 041226 H06 0.3- 0.2+ 041226 097 0.3+ 0.2- 041223 E12 0.8+ 0.2- 041226 683 0.1- 0.1- 041226 097 0.5+ 0.0 041223 E12 0.3- 0.2+ 041226 683 0.2- 0.4- 041226 097 0.3+ 0.3- 041223 E12 0.4+ 0.2+ 041226 H06 0.7- 0.9+ 041226 097 0.5+ 0.1+ 041223 E12 0.4+ 0.2- 041226 683 1.2- 0.3+ 041226 097 0.2+ 0.2+ 041223 E12 0.2+ 0.0 041226 683 0.1- 0.1+ 041226 097 0.2+ 0.1- 041223 E12 0.5+ 0.1+ 041226 H06 0.1- 0.1- 041226 097 0.1- 0.2- 041223 E12 0.6+ 0.1- 041226 683 0.5- 0.3- 041226 097 0.1- 0.1- 041223 E12 0.4+ 0.1+ 041226 683 0.9+ 0.7- 041226 097 0.3- 0.3- 041223 E12 0.2+ 0.2+ 041226 H06 1.2- 1.0+ 041226 097 0.7+ 0.0 041223 E12 1.0+ 0.5- 041226 683 0.2- 0.6- 041226 097 0.7+ 0.0 041223 E12 0.4+ 0.3+ 041226 H06 0.8- 0.6+ 041226 097 0.7+ 0.3- 041223 E12 0.0 0.0 041226 H06 0.5- 0.6- 041226 097 0.2+ 0.1- 041223 E12 0.3+ 0.2+ 041226 683 0.1- 0.3- 041226 097 0.0 0.4- 041223 E12 0.1+ 0.5+ 041226 H06 0.0 0.6+ 041226 097 0.0 0.3- 041223 E12 0.7+ 0.5- 041226 683 0.6- 0.2- 041226 097 0.1- 0.3- 041223 E12 0.3+ 0.4- 041226 683 0.5+ 1.9- 041226 097 0.0 0.4- 041223 E12 0.6+ 0.3- 041226 683 0.7- 0.8- 041226 097 0.4+ 0.1- 041223 E12 0.1+ 0.2+ 041226 651 0.2+ 0.2- 041226 097 0.2+ 0.1+ 041223 E12 0.2+ 0.5- 041226 683 0.0 0.4+ 041226 097 0.0 0.3- 041223 E12 1.1+ 0.5- 041226 651 0.1+ 0.1- 041226 097 0.6+ 0.1- 041224 683 0.4- 0.4- 041226 651 0.3+ 0.1+ 041226 097 0.2- 0.7- 041224 683 0.7+ 0.2- 041226 651 0.0 0.1+ 041226 097 0.0 0.9- 041224 699 0.5- 0.0 041226 683 0.1+ 0.6+ 041226 097 0.1+ 0.4- 041224 699 0.4- 0.3+ 041226 448 0.1- 0.1- 041226 097 0.4+ 0.2- 041224 699 0.4- 0.2+ 041226 H06 0.4- 0.2- 041226 097 0.9+ 0.4+ 041224 699 0.5- 0.2- 041226 651 0.0 0.1+ 041226 097 0.7+ 0.3+ 041224 699 1.1+ 1.4- 041226 651 0.1+ 0.2+ 041226 097 0.1- 0.5- 041224 699 1.4- 1.0+ 041226 683 0.3+ 0.4- 041226 097 0.1- 0.1- 041224 699 0.5- 0.4- 041226 683 0.7- 0.0 041227 H06 0.9- 0.1+ 041224 699 0.6- 0.6+ 041226 683 0.5- 0.3+ 041227 H06 0.5- 0.5+ 041224 620 0.4+ 0.2+ 041226 448 0.0 0.0 041227 H06 0.6- 0.2+ 041224 620 0.1+ 0.5+ 041226 683 0.2+ 0.3+ 041227 H06 0.8- 0.2+ 041224 620 0.3+ 0.3+ 041226 H06 0.4- 0.2- Ephemeris: 2004 MN4 a,e,i = 0.92, 0.19, 3 q = 0.7460 Date TT R. A. (2000) Decl. Delta r Elong. Phase V 2004 12 21 23 46.78 -34 42.3 0.096 0.963 74.8 99.6 18.1 2004 12 31 01 36.89 -23 29.3 0.105 0.994 92.6 81.4 17.6 2005 01 10 02 46.15 -12 17.4 0.129 1.021 103.4 69.5 17.7 2005 01 20 03 31.78 -03 52.0 0.160 1.045 108.0 63.6 18.1 2005 01 30 04 06.06 +02 15.1 0.196 1.064 108.7 61.2 18.5 2005 02 09 04 35.03 +06 49.9 0.235 1.080 107.2 60.8 18.9 2005 02 19 05 01.80 +10 21.3 0.275 1.091 104.6 61.3 19.3 2005 03 01 05 27.68 +13 04.9 0.314 1.097 101.4 62.3 19.6 2005 03 11 05 53.35 +15 10.8 0.353 1.099 97.8 63.6 19.9 2005 03 21 06 19.26 +16 44.9 0.389 1.096 94.2 65.1 20.1 2005 03 31 06 45.39 +17 50.7 0.422 1.088 90.5 66.7 20.4 2005 04 10 07 11.74 +18 31.5 0.450 1.076 86.9 68.4 20.5 2005 04 20 07 38.29 +18 49.6 0.473 1.059 83.3 70.4 20.7 2005 04 30 08 04.78 +18 47.8 0.489 1.038 79.7 72.7 20.8 2005 05 10 08 31.05 +18 29.1 0.497 1.013 76.1 75.4 20.8 2005 05 20 08 56.88 +17 56.9 0.497 0.985 72.6 78.6 20.9 2005 05 30 09 21.81 +17 16.4 0.488 0.953 68.8 82.6 20.9 2005 06 09 09 45.34 +16 34.1 0.470 0.920 64.8 87.6 21.0 2005 06 19 10 06.57 +15 59.1 0.442 0.885 60.3 93.9 21.0 Gareth V. Williams (C) Copyright 2004 MPC M.P.E.C. 2004-Y68


Enter an MPEC number in one of the following forms:
- 1997-B01 (the full form)
- J97B01 (the packed version of the full form)
- B01 (the abbreviated form)